This demonstration page uses our WeatherBlox Daily Observations layout. Learn more.

41.55636, -103.73856

Hourly Observations for December 29, 2016

Temp ( °F °C ) Dew Point ( °F °C ) Humidity (%) Winds ( mph kmh ) Pressure ( in mb ) Visibility ( mi km ) Precip ( " mm )
12:53 am 00:53 Clear 16 -8.9 4 -15.6 59 59 NW 9 15 30.47 1032 10 16.0934 0 0
1:53 am 01:53 Clear 17 -8.3 5 -15 59 59 NW 12 19 30.49 1033 10 16.0934 0 0
2:53 am 02:53 Clear 17 -8.3 6 -14.4 62 62 WNW 10 17 30.5 1033 10 16.0934 0 0
3:53 am 03:53 Clear 17 -8.3 6 -14.4 62 62 NW 10 17 30.52 1034 10 16.0934 0 0
4:53 am 04:53 Clear 12 -11.1 4 -15.6 70 70 NW 7 11 30.55 1035 10 16.0934 0 0
5:53 am 05:53 Clear 13 -10.6 5 -15 70 70 NW 8 13 30.57 1035 10 16.0934 0 0
6:53 am 06:53 Clear 11 -11.7 3 -16.1 70 70 N 9 15 30.6 1036 10 16.0934 0 0
7:53 am 07:53 Sunny 11 -11.7 2 -16.7 67 67 W 6 9 30.61 1037 10 16.0934 0 0
8:53 am 08:53 Sunny 20 -6.7 5 -15 52 52 W 5 7 30.61 1037 10 16.0934 0 0
9:53 am 09:53 Sunny 25 -3.9 8 -13.3 48 48 VRB 3 6 30.62 1037 10 16.0934 0 0
10:53 am 10:53 Sunny 31 -0.6 9 -12.8 40 40 W 5 7 30.58 1035 10 16.0934 0 0
11:53 am 11:53 Sunny 34 1.1 10 -12.2 37 37 WNW 5 7 30.54 1034 10 16.0934 0 0
12:53 pm 12:53 Sunny 38 3.3 12 -11.1 34 34 Calm 30.48 1032 10 16.0934 0 0
1:53 pm 13:53 Sunny 40 4.4 11 -11.7 30 30 NW 6 9 30.44 1031 10 16.0934 0 0
2:53 pm 14:53 Sunny 39 3.9 14 -10 36 36 ESE 7 11 30.41 1030 10 16.0934 0 0
3:53 pm 15:53 Sunny 37 2.8 15 -9.4 41 41 SE 6 9 30.41 1030 10 16.0934 0 0
4:53 pm 16:53 Clear 33 0.6 16 -8.9 49 49 SSE 6 9 30.41 1030 10 16.0934 0 0
5:53 pm 17:53 Clear 32 0 17 -8.3 54 54 S 8 13 30.39 1029 10 16.0934 0 0
6:53 pm 18:53 Clear 31 -0.6 17 -8.3 56 56 S 10 17 30.37 1029 10 16.0934 0 0
7:53 pm 19:53 Clear 31 -0.6 17 -8.3 56 56 SSW 10 17 30.36 1028 10 16.0934 0 0
8:53 pm 20:53 Clear 30 -1.1 17 -8.3 58 58 SSW 9 15 30.3 1026 10 16.0934 0 0
9:53 pm 21:53 Clear 29 -1.7 16 -8.9 58 58 S 9 15 30.26 1025 10 16.0934 0 0
10:53 pm 22:53 Clear 26 -3.3 15 -9.4 63 63 Calm 30.22 1023 10 16.0934 0 0
11:53 pm 23:53 Clear 25 -3.9 14 -10 63 63 Calm 30.18 1022 10 16.0934 0 0

Powered by AerisWeather